Weather History for Gustavus, AK

Change the Weather History Date:

Thursday, October 4, 2012

  Actual Average Record
Temperature  
Mean Temperature 44 °F -  
Max Temperature 46 °F 52 °F 59 °F (1988)
Min Temperature 42 °F 38 °F 21 °F (1954)
Degree Days  
Heating Degree Days 21    
Moisture  
Dew Point 41 °F    
Average Humidity 85    
Maximum Humidity 87    
Minimum Humidity 81    
Precipitation  
Precipitation 0.00 in - - ()
Sea Level Pressure  
Sea Level Pressure 30.49 in    
Wind  
Wind Speed 5 mph (NNW)    
Max Wind Speed 8 mph    
Max Gust Speed -    
Visibility 6 miles    
Events      
Averages and records for this station are not official NWS values.
T = Trace of Precipitation, MM = Missing Value Source: NWS Daily Summary

Daily Weather History Graph

Daily Weather History Graph

Search for Another Location

Airport:

Trip Planner

Search our weather history database for the weather conditions in past years. The results will help you decide how hot, cold, wet, or windy it might be!

Date:

Astronomy

Oct. 04, 2012 Rise Set
Actual Time 7:15 AM AKDT 6:25 PM AKDT
Civil Twilight 6:35 AM AKDT 7:05 PM AKDT
Nautical Twilight 5:49 AM AKDT 7:51 PM AKDT
Astronomical Twilight 5:01 AM AKDT 8:39 PM AKDT
Moon 8:01 PM AKDT (10/4) 12:44 PM AKDT (10/4)
Length of Visible Light 12h 29m
Length of Day
11h 10m
Waning Gibbous, 81% of the Moon is Illuminated
Oct 4
Waning Gibbous
Oct 7
Last Quarter
Oct 15
New
Oct 21
First Quarter
Oct 29
Full

Hourly Weather History & Observations

Time (AKDT) Temp. Windchill Dew Point Humidity Pressure Visibility Wind Dir Wind Speed Gust Speed Precip Events Conditions
12:16 AM 44.6 °F 40.7 °F 39.2 °F 81% 30.50 in 10.0 mi NNW 6.9 mph - N/A   Overcast
12:36 AM 44.6 °F 40.2 °F 39.2 °F 81% 30.50 in 10.0 mi NNW 8.1 mph - N/A   Overcast
12:56 AM 42.8 °F 39.3 °F 39.2 °F 87% 30.50 in 9.0 mi NNW 5.8 mph - N/A   Overcast
1:16 AM 42.8 °F 40.1 °F 39.2 °F 87% 30.50 in 10.0 mi NNW 4.6 mph - N/A   Overcast
1:36 AM 44.6 °F 40.7 °F 39.2 °F 81% 30.50 in 10.0 mi NNW 6.9 mph - N/A   Overcast
1:56 AM 42.8 °F 38.6 °F 39.2 °F 87% 30.50 in 9.0 mi NNW 6.9 mph - N/A   Overcast
2:16 AM 42.8 °F 39.3 °F 39.2 °F 87% 30.50 in 10.0 mi North 5.8 mph - N/A   Overcast
2:36 AM 42.8 °F 40.1 °F 39.2 °F 87% 30.50 in 10.0 mi NNE 4.6 mph - N/A   Overcast
2:56 AM 42.8 °F 41.1 °F 39.2 °F 87% 30.50 in 10.0 mi North 3.5 mph - N/A   Overcast
3:16 AM 42.8 °F 41.1 °F 39.2 °F 87% 30.50 in 10.0 mi NNW 3.5 mph - N/A   Overcast
3:36 AM 42.8 °F - 39.2 °F 87% 30.50 in 10.0 mi Calm Calm - N/A   Overcast
3:56 AM 44.6 °F - 39.2 °F 81% 30.49 in 10.0 mi Calm Calm - N/A   Overcast
4:16 AM 44.6 °F 42.2 °F 39.2 °F 81% 30.49 in 10.0 mi NNW 4.6 mph - N/A   Overcast
4:36 AM 44.6 °F 42.2 °F 39.2 °F 81% 30.49 in 9.0 mi North 4.6 mph - N/A   Overcast
4:56 AM 44.6 °F 41.4 °F 39.2 °F 81% 30.49 in 10.0 mi NNW 5.8 mph - N/A   Overcast
5:16 AM 44.6 °F 41.4 °F 39.2 °F 81% 30.49 in 10.0 mi NNW 5.8 mph - N/A   Overcast
5:36 AM 44.6 °F 41.4 °F 39.2 °F 81% 30.48 in 8.0 mi NNW 5.8 mph - N/A   Overcast
5:56 AM 44.6 °F 41.4 °F 39.2 °F 81% 30.48 in 5.0 mi NNW 5.8 mph - N/A   Overcast
6:16 AM 44.6 °F 40.7 °F 39.2 °F 81% 30.49 in 10.0 mi NNW 6.9 mph - N/A   Overcast
6:36 AM 44.6 °F 40.7 °F 39.2 °F 81% 30.48 in 10.0 mi NNW 6.9 mph - N/A   Overcast
6:56 AM 44.6 °F 42.2 °F 39.2 °F 81% 30.48 in 10.0 mi NW 4.6 mph - N/A   Overcast
7:16 AM 44.6 °F 40.7 °F 39.2 °F 81% 30.48 in 10.0 mi NNW 6.9 mph - N/A   Overcast
7:36 AM 44.6 °F 41.4 °F 39.2 °F 81% 30.48 in 10.0 mi NNW 5.8 mph - N/A   Overcast
7:56 AM 44.6 °F 41.4 °F 39.2 °F 81% 30.48 in 5.0 mi NNW 5.8 mph - N/A   Overcast
8:16 AM 44.6 °F 43.1 °F 39.2 °F 81% 30.48 in 10.0 mi NNW 3.5 mph - N/A   Overcast
8:36 AM 44.6 °F 43.1 °F 39.2 °F 81% 30.48 in 8.0 mi NNW 3.5 mph - N/A   Overcast
8:56 AM 44.6 °F 42.2 °F 39.2 °F 81% 30.48 in 10.0 mi NNW 4.6 mph - N/A   Overcast
9:16 AM 44.6 °F 42.2 °F 41.0 °F 87% 30.48 in 4.0 mi NNW 4.6 mph - N/A   Overcast
9:36 AM 44.6 °F 43.1 °F 41.0 °F 87% 30.49 in 3.0 mi NW 3.5 mph - N/A   Overcast
9:56 AM 44.6 °F - 41.0 °F 87% 30.49 in 2.0 mi Calm Calm - N/A   Overcast
10:16 AM 44.6 °F - 41.0 °F 87% 30.49 in 1.8 mi Calm Calm - N/A   Overcast
10:36 AM 44.6 °F 42.2 °F 41.0 °F 87% 30.50 in 2.5 mi NW 4.6 mph - N/A   Overcast
10:56 AM 44.6 °F 42.2 °F 41.0 °F 87% 30.50 in 2.0 mi NNW 4.6 mph - N/A   Overcast
11:16 AM 46.4 °F - 42.8 °F 87% 30.49 in 3.0 mi Calm Calm - N/A   Overcast
11:36 AM 46.4 °F 45.2 °F 42.8 °F 87% 30.50 in 3.0 mi NW 3.5 mph - N/A   Overcast
11:56 AM 46.4 °F 45.2 °F 42.8 °F 87% 30.50 in 2.5 mi NW 3.5 mph - N/A   Overcast
12:16 PM 46.4 °F - 42.8 °F 87% 30.50 in 3.0 mi Calm Calm - N/A   Overcast
12:56 PM 46.4 °F - 42.8 °F 87% 30.50 in 3.0 mi Calm Calm - N/A   Overcast
1:16 PM 46.4 °F 45.2 °F 42.8 °F 87% 30.50 in 4.0 mi NW 3.5 mph - N/A   Overcast
1:36 PM 46.4 °F 44.3 °F 42.8 °F 87% 30.51 in 2.0 mi NW 4.6 mph - N/A   Overcast
1:56 PM 46.4 °F 44.3 °F 42.8 °F 87% 30.50 in 2.0 mi NNW 4.6 mph - N/A   Overcast
2:16 PM 46.4 °F - 42.8 °F 87% 30.50 in 3.0 mi Calm Calm - N/A   Overcast
2:36 PM 46.4 °F 44.3 °F 42.8 °F 87% 30.50 in 2.5 mi NW 4.6 mph - N/A   Overcast
2:56 PM 46.4 °F - 42.8 °F 87% 30.49 in 3.0 mi Calm Calm - N/A   Overcast
3:16 PM 46.4 °F 43.5 °F 42.8 °F 87% 30.49 in 2.0 mi NNW 5.8 mph - N/A   Overcast
3:36 PM 46.4 °F 44.3 °F 42.8 °F 87% 30.49 in 2.0 mi NW 4.6 mph - N/A   Overcast
3:56 PM 46.4 °F 45.2 °F 42.8 °F 87% 30.49 in 1.8 mi NNW 3.5 mph - N/A   Overcast
4:16 PM 46.4 °F 44.3 °F 42.8 °F 87% 30.49 in 2.5 mi NNW 4.6 mph - N/A   Overcast
4:36 PM 46.4 °F 44.3 °F 42.8 °F 87% 30.50 in 2.0 mi NNW 4.6 mph - N/A   Overcast
5:16 PM 46.4 °F 44.3 °F 42.8 °F 87% 30.49 in 2.0 mi NW 4.6 mph - N/A   Overcast
5:36 PM 46.4 °F - 42.8 °F 87% 30.49 in 2.5 mi Calm Calm - N/A   Overcast
5:56 PM 46.4 °F 44.3 °F 42.8 °F 87% 30.49 in 2.0 mi NW 4.6 mph - N/A   Overcast
6:16 PM 46.4 °F 44.3 °F 42.8 °F 87% 30.49 in 2.5 mi NNW 4.6 mph - N/A   Overcast
6:36 PM 46.4 °F 45.2 °F 42.8 °F 87% 30.49 in 3.0 mi NW 3.5 mph - N/A   Overcast
6:56 PM 46.4 °F - 42.8 °F 87% 30.49 in 7.0 mi Calm Calm - N/A   Overcast
7:16 PM 46.4 °F 45.2 °F 42.8 °F 87% 30.49 in 5.0 mi NW 3.5 mph - N/A   Overcast
7:36 PM 46.4 °F - 42.8 °F 87% 30.49 in 4.0 mi Calm Calm - N/A   Overcast
7:56 PM 46.4 °F 45.2 °F 42.8 °F 87% 30.49 in 3.0 mi NW 3.5 mph - N/A   Overcast
8:16 PM 46.4 °F - 42.8 °F 87% 30.50 in 3.0 mi Calm Calm - N/A   Overcast
8:36 PM 46.4 °F - 42.8 °F 87% 30.49 in 3.0 mi Calm Calm - N/A   Overcast
9:16 PM 46.4 °F 45.2 °F 42.8 °F 87% 30.49 in 3.0 mi NNW 3.5 mph - N/A   Overcast
9:36 PM 46.4 °F 44.3 °F 42.8 °F 87% 30.49 in 3.0 mi NNW 4.6 mph - N/A   Overcast
9:56 PM 46.4 °F 45.2 °F 42.8 °F 87% 30.49 in 3.0 mi NNW 3.5 mph - N/A   Overcast
10:16 PM 46.4 °F 45.2 °F 42.8 °F 87% 30.50 in 2.5 mi NW 3.5 mph - N/A   Overcast
10:36 PM 46.4 °F - 42.8 °F 87% 30.50 in 3.0 mi Calm Calm - N/A   Overcast
10:56 PM 46.4 °F - 42.8 °F 87% 30.50 in 4.0 mi Calm Calm - N/A   Overcast
11:16 PM 46.4 °F 45.2 °F 42.8 °F 87% 30.50 in 5.0 mi NNW 3.5 mph - N/A   Overcast
11:36 PM 46.4 °F 43.5 °F 42.8 °F 87% 30.51 in 5.0 mi NW 5.8 mph - N/A   Overcast
11:56 PM 46.4 °F 44.3 °F 42.8 °F 87% 30.52 in 5.0 mi NW 4.6 mph - N/A   Overcast